Vacaville, CA

7:26 PM PDT on August 18, 2017 (GMT -0700)
Nut Tree

Weather History for KVCB - January, 2013

Change the Weather History Date:

Wednesday, January 9, 2013

  Actual Average Record
Temperature  
Mean Temperature 44 °F -  
Max Temperature 52 °F 53 °F 69 °F (1962)
Min Temperature 35 °F 35 °F 22 °F (1957)
Degree Days  
Heating Degree Days 22    
Moisture  
Dew Point 39 °F    
Average Humidity 89    
Maximum Humidity 100    
Minimum Humidity 58    
Precipitation  
Precipitation 0.00 in - - ()
Sea Level Pressure  
Sea Level Pressure 30.08 in    
Wind  
Wind Speed 2 mph (West)    
Max Wind Speed 12 mph    
Max Gust Speed 23 mph    
Visibility 4 miles    
Events Fog    
Averages and records for this station are not official NWS values.
T = Trace of Precipitation, MM = Missing Value Source: NWS Daily Summary

Daily Weather History Graph

Daily Weather History Graph

Search for Another Location

Airport or City:

Trip Planner

Search our weather history database for the weather conditions in past years. The results will help you decide how hot, cold, wet, or windy it might be!

Date:

Astronomy

Jan. 09, 2013 Rise Set
Actual Time 7:24 AM PST 5:05 PM PST
Civil Twilight 6:55 AM PST 5:34 PM PST
Nautical Twilight 6:22 AM PST 6:07 PM PST
Astronomical Twilight 5:50 AM PST 6:39 PM PST
Moon 5:09 AM PST (1/9) 3:12 PM PST (1/9)
Length of Visible Light 10h 39m
Length of Day
9h 40m
Waning Crescent, 6% of the Moon is Illuminated
Jan 9
Waning Crescent
Jan 11
New
Jan 18
First Quarter
Jan 26
Full
Feb 3
Last Quarter

Hourly Weather History & Observations

Time (PST) Temp. Windchill Dew Point Humidity Pressure Visibility Wind Dir Wind Speed Gust Speed Precip Events Conditions
12:53 AM 39.0 °F - 37.9 °F 96% 30.18 in 3.0 mi Calm Calm - N/A   Clear
1:53 AM 39.9 °F 37.8 °F 39.0 °F 97% 30.19 in 3.0 mi WNW 3.5 mph - N/A   Clear
2:30 AM 39.2 °F - 39.2 °F 100% 30.18 in 2.5 mi Calm Calm - N/A   Clear
2:53 AM 37.0 °F 34.5 °F 37.0 °F 100% 30.18 in 2.5 mi WNW 3.5 mph - N/A   Clear
3:53 AM 36.0 °F - 36.0 °F 100% 30.16 in 2.0 mi Calm Calm - N/A   Clear
4:31 AM 35.6 °F - 35.6 °F 100% 30.14 in 2.0 mi Calm Calm - N/A   Clear
4:53 AM 36.0 °F - 35.1 °F 97% 30.14 in 1.5 mi Calm Calm - N/A   Clear
5:11 AM 35.6 °F - 35.6 °F 100% 30.13 in 1.2 mi Calm Calm - N/A   Partly Cloudy
5:23 AM 35.6 °F - 35.6 °F 100% 30.13 in 2.5 mi Calm Calm - N/A   Scattered Clouds
5:37 AM 35.6 °F - 35.6 °F 100% 30.13 in 3.0 mi Calm Calm - N/A   Partly Cloudy
5:53 AM 36.0 °F - 36.0 °F 100% 30.13 in 2.5 mi Calm Calm - N/A   Clear
6:06 AM 35.6 °F - 35.6 °F 100% 30.12 in 1.5 mi Calm Calm - N/A   Clear
6:31 AM 35.6 °F - 35.6 °F 100% 30.12 in 3.0 mi Calm Calm - N/A   Clear
6:42 AM 35.6 °F - 35.6 °F 100% 30.12 in 2.5 mi Calm Calm - N/A   Clear
6:53 AM 36.0 °F - 35.1 °F 97% 30.12 in 2.0 mi Calm Calm - N/A   Clear
7:22 AM 35.6 °F - 35.6 °F 100% 30.12 in 1.0 mi Calm Calm - N/A   Mist
7:31 AM 35.6 °F - 35.6 °F 100% 30.11 in 0.8 mi Calm Calm - N/A   Scattered Clouds
7:39 AM 35.6 °F - 35.6 °F 100% 30.12 in 0.5 mi Calm Calm - N/A Fog Fog
7:53 AM 37.0 °F - 37.0 °F 100% 30.13 in 0.5 mi Calm Calm - N/A Fog Fog
7:57 AM 37.4 °F - 37.4 °F 100% 30.13 in 1.2 mi Calm Calm - N/A   Scattered Clouds
8:53 AM 42.1 °F 39.2 °F 41.0 °F 96% 30.12 in 1.8 mi ENE 4.6 mph - N/A   Clear
9:05 AM 41.0 °F 39.0 °F 39.2 °F 93% 30.13 in 0.8 mi ENE 3.5 mph - N/A   Mist
9:53 AM 39.9 °F - 39.9 °F 100% 30.12 in 0.2 mi Calm Calm - N/A Fog Fog
10:19 AM 42.8 °F - 42.8 °F 100% 30.10 in 1.2 mi Calm Calm - N/A   Overcast
10:53 AM 43.0 °F - 43.0 °F 100% 30.09 in 1.5 mi Calm Calm - N/A   Overcast
11:07 AM 44.6 °F 43.1 °F 44.6 °F 100% 30.07 in 2.0 mi Variable 3.5 mph - N/A   Scattered Clouds
11:18 AM 44.6 °F - 44.6 °F 100% 30.06 in 3.0 mi Calm Calm - N/A   Partly Cloudy
11:37 AM 44.6 °F - 44.6 °F 100% 30.05 in 2.5 mi Calm Calm - N/A   Clear
11:53 AM 46.9 °F - 44.1 °F 90% 30.04 in 3.0 mi South 5.8 mph - N/A   Clear
12:53 PM 51.1 °F - 46.0 °F 83% 30.00 in 4.0 mi Variable 3.5 mph - N/A   Haze
1:53 PM 51.1 °F - 46.0 °F 83% 29.98 in 4.0 mi NNW 4.6 mph - N/A   Haze
2:53 PM 52.0 °F - 45.0 °F 77% 29.97 in 8.0 mi SSW 11.5 mph - N/A   Clear
3:16 PM 51.8 °F - 46.4 °F 82% 29.97 in 10.0 mi SW 10.4 mph - N/A   Mostly Cloudy
3:53 PM 51.1 °F - 46.9 °F 86% 29.97 in 7.0 mi SSW 8.1 mph - N/A   Overcast
4:09 PM 51.8 °F - 46.4 °F 82% 29.96 in 8.0 mi SSW 4.6 mph - N/A   Mostly Cloudy
4:19 PM 51.8 °F - 48.2 °F 88% 29.96 in 9.0 mi SW 6.9 mph - N/A   Mostly Cloudy
4:53 PM 51.1 °F - 43.0 °F 74% 29.97 in 10.0 mi WNW 11.5 mph - N/A   Overcast
5:01 PM 51.8 °F - 42.8 °F 71% 29.97 in 10.0 mi WNW 11.5 mph 23.0 mph N/A   Overcast
5:53 PM 50.0 °F - 39.0 °F 66% 29.96 in 10.0 mi WNW 10.4 mph - 0.00 in   Overcast
6:53 PM 48.0 °F - 34.0 °F 58% 29.98 in 10.0 mi West 10.4 mph - N/A   Scattered Clouds
7:53 PM 45.0 °F 39.7 °F 33.1 °F 63% 30.00 in 10.0 mi West 10.4 mph - N/A   Clear
8:53 PM 44.1 °F 42.5 °F 33.1 °F 65% 30.02 in 10.0 mi Variable 3.5 mph - N/A   Clear
9:53 PM 45.0 °F 40.6 °F 30.9 °F 58% 30.03 in 10.0 mi West 8.1 mph - N/A   Clear
10:53 PM 43.0 °F - 28.9 °F 58% 30.04 in 10.0 mi Calm Calm - N/A   Clear
11:53 PM 43.0 °F - 28.9 °F 58% 30.05 in 10.0 mi Calm Calm - N/A   Clear